This demonstration page uses our WeatherBlox Daily Observations layout. Learn more.

Left ArrowRight Arrow

39.08367, -84.50855

Hourly Observations for April 26, 2022

Temp ( °F °C ) Dew Point ( °F °C ) Humidity (%) Winds ( mph kmh ) Pressure ( in mb ) Visibility ( mi km ) Precip ( " mm )
12:53 am 00:53 Clear 54 12.2 44 6.7 69 69 NW 9 15 30.17 1022 10 16 0.00 0.00
1:53 am 01:53 Clear 51 10.6 42 5.6 71 71 NNW 9 15 30.19 1022 10 16 0.00 0.00
2:53 am 02:53 Mostly Clear 50 10 41 5 71 71 NNW 8 13 30.18 1022 10 16 0.00 0.00
3:53 am 03:53 Mostly Cloudy 48 8.9 39 3.9 71 71 N 7 11 30.21 1023 10 16 0.00 0.00
4:53 am 04:53 Mostly Clear 46 7.8 36 2.2 68 68 NNW 8 13 30.22 1024 10 16 0.00 0.00
5:53 am 05:53 Clear 44 6.7 36 2.2 73 73 NNW 9 15 30.23 1024 10 16 0.00 0.00
6:53 am 06:53 Sunny 42 5.6 33 0.6 71 71 VRB 7 11 30.26 1025 10 16 0.00 0.00
7:53 am 07:53 Sunny 43 6.1 34 1.1 71 71 VRB 5 7 30.27 1025 10 16 0.00 0.00
8:53 am 08:53 Mostly Sunny 45 7.2 36 2.2 71 71 W 9 15 30.27 1025 10 16 0.00 0.00
9:53 am 09:53 Partly Cloudy 45 7.2 33 0.6 63 63 WNW 8 13 30.28 1025 10 16 0.00 0.00
10:53 am 10:53 Cloudy 46 7.8 34 1.1 63 63 W 8 13 30.30 1026 10 16 0.00 0.00
11:53 am 11:53 Cloudy 47 8.3 34 1.1 61 61 W 10 17 30.30 1026 10 16 0.00 0.00
12:53 pm 12:53 Mostly Cloudy 48 8.9 34 1.1 58 58 VRB 6 9 30.29 1026 10 16 0.00 0.00
1:35 pm 13:35 Mostly Cloudy 50 10 35 1.7 57 57 S 7 11 30.29 1026 10 16 0.00 0.00
1:53 pm 13:53 Partly Cloudy 51 10.6 36 2.2 56 56 W 12 19 30.27 1025 10 16 0.00 0.00
2:53 pm 14:53 Partly Cloudy 53 11.7 35 1.7 51 51 VRB 7 11 30.27 1025 10 16 0.00 0.00
3:53 pm 15:53 Partly Cloudy 55 12.8 35 1.7 47 47 W 9 15 30.26 1025 10 16 0.00 0.00
4:53 pm 16:53 Sunny 57 13.9 34 1.1 42 42 W 16 26 30.24 1024 10 16 0.00 0.00
5:53 pm 17:53 Mostly Sunny 57 13.9 34 1.1 42 42 NW 10 17 30.24 1024 10 16 0.00 0.00
6:53 pm 18:53 Sunny 56 13.3 32 0 40 40 WNW 7 11 30.24 1024 10 16 0.00 0.00
7:53 pm 19:53 Sunny 54 12.2 32 0 43 43 NW 9 15 30.25 1025 10 16 0.00 0.00
8:53 pm 20:53 Clear 52 11.1 32 0 47 47 WNW 8 13 30.27 1025 10 16 0.00 0.00
9:53 pm 21:53 Clear 50 10 32 0 50 50 WNW 6 9 30.28 1025 10 16 0.00 0.00
10:53 pm 22:53 Clear 46 7.8 35 1.7 66 66 Calm 30.29 1026 10 16 0.00 0.00
11:53 pm 23:53 Clear 47 8.3 34 1.1 61 61 Calm 30.29 1026 10 16 0.00 0.00

Powered by AerisWeather